RADUGA-1 6 [-]

Last updated on Oct. 27, 2020, 5:53 a.m. UTC

1 26936U 01045A   20300.59683023 -.00000197  00000-0  00000-0 0  9995
2 26936  12.7299  28.9718 0013725 152.6701 227.1962  0.97746093 68472
UTC
Height (km)
Latitude
Longitude
Inclination
Orbital Period
UTC large
Height (km)
Speed (km/s)
/
Latitude / Longitude
Inclination (degrees)
Orbital Period (minutes)
Azimuth
Elevation
Range (km)
Doppler Factor
iOS Compass Heading
iOS Angle

Next 30 passes for location: Hong Kong

Rise time Rise Azimuth (degrees) Set time Set Azimuth (degrees) Duration Max altitude (degrees)

No matching passes for this satellites